AFR15P LFMN-LFLL

Flight info

Callsign AFR15P
Flight time 0h 35m
Altitude 30000
Route BODRU DCT KOTIT/N0366F180 Y42 LASUR Z42 PINED
Aircraft A319/M-SDE3FGHIRWY/LB1

Departure

Time 2026-05-07 20:59
Airport Nice-Côte d'Azur Airport (LFMN)

Arrival

Time 2026-05-07 21:34
Airport Lyon Saint-Exupéry Airport (LFLL)
Time Latitude Longitude Altitude Speed Heading
2026-05-07 20:36 43.66405 7.21179 21 ft 0 kts 351°
2026-05-07 20:50 43.66390 7.21182 24 ft 4 kts 351°
2026-05-07 20:50 43.66363 7.21188 22 ft 4 kts 347°
2026-05-07 20:50 43.66339 7.21201 24 ft 4 kts 315°
2026-05-07 20:51 43.66329 7.21229 23 ft 3 kts 262°
2026-05-07 20:51 43.66330 7.21239 25 ft 0 kts 261°
2026-05-07 20:54 43.66323 7.21174 21 ft 13 kts 261°
2026-05-07 20:54 43.66301 7.21025 23 ft 16 kts 236°
2026-05-07 20:54 43.66204 7.21013 21 ft 15 kts 167°
2026-05-07 20:54 43.66104 7.21035 22 ft 14 kts 171°
2026-05-07 20:55 43.66003 7.21058 23 ft 15 kts 171°
2026-05-07 20:55 43.65911 7.21081 21 ft 13 kts 201°
2026-05-07 20:55 43.65841 7.20990 21 ft 15 kts 225°
2026-05-07 20:55 43.65753 7.20870 21 ft 20 kts 225°
2026-05-07 20:56 43.65640 7.20714 21 ft 26 kts 225°
2026-05-07 20:56 43.65501 7.20524 21 ft 31 kts 226°
2026-05-07 20:56 43.65375 7.20348 21 ft 22 kts 225°
2026-05-07 20:56 43.65271 7.20301 22 ft 16 kts 154°
2026-05-07 20:57 43.65187 7.20414 21 ft 18 kts 135°
2026-05-07 20:57 43.65064 7.20458 21 ft 22 kts 210°
2026-05-07 20:57 43.64947 7.20295 22 ft 26 kts 224°
2026-05-07 20:57 43.64824 7.20236 22 ft 15 kts 142°
2026-05-07 20:58 43.64812 7.20252 22 ft 0 kts 132°
2026-05-07 20:58 43.64812 7.20253 22 ft 0 kts 133°
2026-05-07 20:58 43.64781 7.20296 23 ft 16 kts 131°
2026-05-07 20:58 43.64797 7.20423 24 ft 15 kts 40°
2026-05-07 20:59 43.64922 7.20591 24 ft 50 kts 44°
2026-05-07 20:59 43.65366 7.21200 24 ft 127 kts 45°
2026-05-07 20:59 43.66121 7.22244 239 ft 164 kts 46°
2026-05-07 20:59 43.66851 7.23450 1034 ft 166 kts 62°
2026-05-07 21:00 43.66955 7.24988 1712 ft 172 kts 110°
2026-05-07 21:00 43.66118 7.26306 2108 ft 200 kts 142°
2026-05-07 21:00 43.64980 7.27579 2619 ft 217 kts 139°
2026-05-07 21:00 43.63838 7.28974 3494 ft 220 kts 137°
2026-05-07 21:01 43.62699 7.30393 4420 ft 222 kts 141°
2026-05-07 21:01 43.61303 7.31326 5258 ft 227 kts 168°
2026-05-07 21:01 43.59724 7.31316 6123 ft 230 kts 193°
2026-05-07 21:01 43.58282 7.30401 6941 ft 234 kts 211°
2026-05-07 21:02 43.56896 7.29210 7809 ft 236 kts 211°
2026-05-07 21:02 43.55648 7.27740 8638 ft 241 kts 233°
2026-05-07 21:02 43.55018 7.25598 9472 ft 246 kts 263°
2026-05-07 21:02 43.55215 7.23249 10250 ft 253 kts 290°
2026-05-07 21:03 43.56200 7.21122 10680 ft 278 kts 313°
2026-05-07 21:03 43.57592 7.19114 11094 ft 302 kts 314°
2026-05-07 21:03 43.59112 7.16944 11490 ft 326 kts 314°
2026-05-07 21:03 43.60719 7.14652 12202 ft 336 kts 313°
2026-05-07 21:04 43.62350 7.12323 13074 ft 340 kts 313°
2026-05-07 21:04 43.64005 7.09952 13939 ft 345 kts 313°
2026-05-07 21:04 43.65655 7.07584 14720 ft 348 kts 313°
2026-05-07 21:04 43.67341 7.05158 15504 ft 352 kts 312°
2026-05-07 21:05 43.69039 7.02705 16287 ft 355 kts 312°
2026-05-07 21:05 43.70749 7.00224 17053 ft 358 kts 312°
2026-05-07 21:05 43.72474 6.97710 17848 ft 362 kts 311°
2026-05-07 21:05 43.74217 6.95176 18584 ft 365 kts 311°
2026-05-07 21:06 43.75973 6.92625 19267 ft 368 kts 311°
2026-05-07 21:06 43.77747 6.90045 19945 ft 371 kts 311°
2026-05-07 21:06 43.79533 6.87444 20633 ft 374 kts 310°
2026-05-07 21:06 43.81306 6.84862 21313 ft 376 kts 310°
2026-05-07 21:07 43.83114 6.82228 22005 ft 379 kts 310°
2026-05-07 21:07 43.84939 6.79568 22676 ft 381 kts 310°
2026-05-07 21:07 43.86772 6.76899 23325 ft 384 kts 310°
2026-05-07 21:07 43.88622 6.74201 23900 ft 387 kts 309°
2026-05-07 21:08 43.90480 6.71489 24451 ft 390 kts 309°
2026-05-07 21:08 43.92355 6.68750 25002 ft 392 kts 309°
2026-05-07 21:08 43.94232 6.65998 25548 ft 394 kts 309°
2026-05-07 21:08 43.96117 6.63228 26070 ft 396 kts 308°
2026-05-07 21:09 43.97993 6.60473 26583 ft 399 kts 308°
2026-05-07 21:09 43.99907 6.57666 27101 ft 401 kts 308°
2026-05-07 21:09 44.01828 6.54842 27596 ft 403 kts 308°
2026-05-07 21:09 44.03754 6.52002 28051 ft 405 kts 308°
2026-05-07 21:10 44.05689 6.49140 28575 ft 407 kts 308°
2026-05-07 21:10 44.07631 6.46269 29106 ft 409 kts 308°
2026-05-07 21:10 44.09582 6.43386 29600 ft 410 kts 307°
2026-05-07 21:10 44.11546 6.40483 29955 ft 413 kts 307°
2026-05-07 21:11 44.13508 6.37583 30020 ft 404 kts 307°
2026-05-07 21:11 44.15375 6.34838 30020 ft 390 kts 307°
2026-05-07 21:11 44.19047 6.29407 30021 ft 382 kts 307°
2026-05-07 21:12 44.22673 6.24004 30019 ft 381 kts 307°
2026-05-07 21:12 44.26297 6.18595 29778 ft 381 kts 307°
2026-05-07 21:13 44.28108 6.15888 29479 ft 382 kts 307°
2026-05-07 21:13 44.29901 6.13207 29203 ft 384 kts 307°
2026-05-07 21:13 44.31725 6.10479 28928 ft 385 kts 307°
2026-05-07 21:13 44.33554 6.07741 28663 ft 386 kts 307°
2026-05-07 21:14 44.35386 6.04994 28390 ft 388 kts 307°
2026-05-07 21:14 44.37228 6.02235 28119 ft 389 kts 308°
2026-05-07 21:14 44.39078 5.99460 27851 ft 390 kts 308°
2026-05-07 21:14 44.40922 5.96687 27591 ft 390 kts 308°
2026-05-07 21:15 44.42772 5.93908 27324 ft 390 kts 308°
2026-05-07 21:15 44.44596 5.91170 27072 ft 389 kts 308°
2026-05-07 21:15 44.46431 5.88408 26814 ft 388 kts 308°
2026-05-07 21:15 44.48267 5.85637 26558 ft 387 kts 308°
2026-05-07 21:16 44.50096 5.82875 26305 ft 386 kts 308°
2026-05-07 21:16 44.51916 5.80124 25998 ft 382 kts 308°
2026-05-07 21:16 44.53711 5.77409 25533 ft 378 kts 309°
2026-05-07 21:16 44.55493 5.74714 25085 ft 376 kts 309°
2026-05-07 21:17 44.57259 5.72039 24636 ft 373 kts 309°
2026-05-07 21:17 44.59011 5.69376 24191 ft 371 kts 309°
2026-05-07 21:17 44.60732 5.66756 23744 ft 369 kts 309°
2026-05-07 21:17 44.62464 5.64121 23238 ft 366 kts 309°
2026-05-07 21:18 44.64199 5.61527 22762 ft 364 kts 313°
2026-05-07 21:18 44.66194 5.59337 22295 ft 365 kts 325°
2026-05-07 21:18 44.68477 5.57787 21818 ft 366 kts 338°
2026-05-07 21:18 44.70950 5.56941 21311 ft 367 kts 350°
2026-05-07 21:19 44.73488 5.56524 20828 ft 366 kts 351°
2026-05-07 21:19 44.76009 5.56112 20326 ft 365 kts 351°
2026-05-07 21:19 44.78529 5.55697 19821 ft 364 kts 351°
2026-05-07 21:19 44.81002 5.55285 19332 ft 363 kts 351°
2026-05-07 21:20 44.83504 5.54863 18579 ft 364 kts 352°
2026-05-07 21:20 44.86056 5.54431 18335 ft 358 kts 352°
2026-05-07 21:20 44.88491 5.54024 17849 ft 352 kts 352°
2026-05-07 21:20 44.90924 5.53618 17317 ft 352 kts 352°
2026-05-07 21:21 44.93353 5.53214 16846 ft 350 kts 352°
2026-05-07 21:21 44.95768 5.52809 16378 ft 348 kts 352°
2026-05-07 21:21 44.98170 5.52407 15911 ft 347 kts 352°
2026-05-07 21:21 45.00572 5.52093 15474 ft 346 kts 357°
2026-05-07 21:22 45.02970 5.52082 15044 ft 344 kts 358°
2026-05-07 21:22 45.05325 5.52025 14674 ft 340 kts 353°
2026-05-07 21:22 45.07583 5.51232 14330 ft 332 kts 334°
2026-05-07 21:22 45.09578 5.49641 14002 ft 326 kts 327°
2026-05-07 21:23 45.11477 5.48000 13778 ft 313 kts 326°
2026-05-07 21:23 45.13356 5.46364 12809 ft 324 kts 326°
2026-05-07 21:23 45.15286 5.44676 12260 ft 326 kts 327°
2026-05-07 21:23 45.17212 5.42993 11785 ft 325 kts 327°
2026-05-07 21:24 45.19140 5.41314 11315 ft 325 kts 327°
2026-05-07 21:24 45.21063 5.39642 10843 ft 324 kts 327°
2026-05-07 21:24 45.22963 5.37992 10387 ft 324 kts 327°
2026-05-07 21:24 45.24882 5.36322 9951 ft 323 kts 327°
2026-05-07 21:25 45.26756 5.34689 9815 ft 310 kts 327°
2026-05-07 21:25 45.28553 5.33122 9676 ft 301 kts 327°
2026-05-07 21:25 45.30326 5.31572 9546 ft 298 kts 327°
2026-05-07 21:25 45.32101 5.30018 9113 ft 302 kts 327°
2026-05-07 21:26 45.33870 5.28466 8764 ft 297 kts 327°
2026-05-07 21:26 45.35618 5.26934 8254 ft 293 kts 327°
2026-05-07 21:26 45.37322 5.25442 7617 ft 290 kts 327°
2026-05-07 21:26 45.39031 5.23943 6990 ft 287 kts 328°
2026-05-07 21:27 45.40721 5.22462 6379 ft 283 kts 328°
2026-05-07 21:27 45.42390 5.20997 5709 ft 280 kts 328°
2026-05-07 21:27 45.44035 5.19549 5138 ft 275 kts 329°
2026-05-07 21:27 45.45614 5.18161 5061 ft 259 kts 329°
2026-05-07 21:28 45.47092 5.16860 4982 ft 242 kts 329°
2026-05-07 21:28 45.48492 5.15626 4880 ft 231 kts 329°
2026-05-07 21:28 45.49825 5.14448 4771 ft 220 kts 329°
2026-05-07 21:28 45.51074 5.13343 4705 ft 205 kts 329°
2026-05-07 21:29 45.52234 5.12318 4583 ft 187 kts 329°
2026-05-07 21:29 45.53376 5.11652 4479 ft 170 kts 350°
2026-05-07 21:29 45.54545 5.11477 4160 ft 168 kts 356°
2026-05-07 21:29 45.55685 5.11343 3895 ft 159 kts 356°
2026-05-07 21:30 45.56757 5.11215 3687 ft 149 kts 356°
2026-05-07 21:30 45.57742 5.11096 3482 ft 137 kts 356°
2026-05-07 21:30 45.58672 5.10984 3304 ft 132 kts 356°
2026-05-07 21:30 45.59578 5.10875 3127 ft 130 kts 356°
2026-05-07 21:31 45.60473 5.10767 2951 ft 128 kts 356°
2026-05-07 21:31 45.61347 5.10661 2786 ft 127 kts 356°
2026-05-07 21:31 45.62224 5.10555 2608 ft 126 kts 356°
2026-05-07 21:31 45.63096 5.10449 2444 ft 125 kts 356°
2026-05-07 21:32 45.63966 5.10344 2273 ft 125 kts 355°
2026-05-07 21:32 45.64837 5.10238 2102 ft 126 kts 355°
2026-05-07 21:32 45.65711 5.10132 1917 ft 126 kts 355°
2026-05-07 21:32 45.66585 5.10026 1766 ft 126 kts 355°
2026-05-07 21:33 45.67456 5.09921 1584 ft 126 kts 355°
2026-05-07 21:33 45.68312 5.09817 1440 ft 125 kts 355°
2026-05-07 21:33 45.69184 5.09709 1297 ft 126 kts 354°
2026-05-07 21:33 45.70055 5.09607 1098 ft 126 kts 356°
2026-05-07 21:34 45.70925 5.09504 916 ft 125 kts 354°
2026-05-07 21:34 45.71767 5.09406 824 ft 111 kts 355°
2026-05-07 21:34 45.72384 5.09331 814 ft 64 kts 355°
2026-05-07 21:34 45.72660 5.09294 807 ft 15 kts 349°
2026-05-07 21:35 45.72788 5.09237 803 ft 24 kts 335°
2026-05-07 21:35 45.72940 5.09100 798 ft 27 kts 324°
2026-05-07 21:35 45.72960 5.08845 792 ft 28 kts 268°
2026-05-07 21:35 45.72946 5.08554 791 ft 30 kts 265°
2026-05-07 21:36 45.72942 5.08492 790 ft 0 kts 264°
2026-05-07 21:36 45.72942 5.08491 790 ft 1 kts 264°
2026-05-07 21:36 45.72935 5.08443 790 ft 9 kts 254°
2026-05-07 21:36 45.72868 5.08357 790 ft 18 kts 198°
2026-05-07 21:37 45.72712 5.08370 791 ft 27 kts 175°
2026-05-07 21:37 45.72512 5.08394 796 ft 30 kts 175°
2026-05-07 21:37 45.72325 5.08417 799 ft 16 kts 175°
2026-05-07 21:37 45.72235 5.08427 800 ft 13 kts 174°
2026-05-07 21:38 45.72130 5.08440 803 ft 17 kts 176°
2026-05-07 21:38 45.72005 5.08455 802 ft 19 kts 178°
2026-05-07 21:38 45.71965 5.08319 799 ft 19 kts 286°
2026-05-07 21:38 45.71896 5.08203 797 ft 18 kts 195°
2026-05-07 21:39 45.71872 5.08194 797 ft 0 kts 195°
2026-05-07 21:40 45.71867 5.08192 797 ft 2 kts 195°
2026-05-07 21:40 45.71844 5.08181 797 ft 4 kts 201°
2026-05-07 21:40 45.71826 5.08155 797 ft 0 kts 253°
2026-05-07 21:41 45.71829 5.08139 797 ft 3 kts 292°
2026-05-07 21:41 45.71851 5.08113 796 ft 5 kts 317°
2026-05-07 21:41 45.71866 5.08085 797 ft 3 kts 306°